Hourly Data Report for June 26, 2021

WESTERN HEAD
NOVA SCOTIA
Current Station Operator: ECCC - MSC

43°59'24.070" N
64°39'51.008" W
10.10 m
8206240
71411
WWE

Download Data

Hourly Data (June 2021)
Hourly Data Report for June 26, 2021
TIME
LST
Temp Definition
°C
Dew Point Definition
°C
Rel Hum Definition
%
Precip. Amount Definition
mm

Wind Dir Definition
10's deg

Wind Spd Definition
km/h
Visibility Definition
km
Stn Press Definition
kPa
Hmdx Definition


Wind Chill Definition


Weather Definition


00:00 13.9 LegendMM LegendMM 0.0 20 8   102.65     LegendNANA
01:00 14.0 LegendMM LegendMM 0.0 20 6   102.61     LegendNANA
02:00 14.1 LegendMM LegendMM 0.0 23 9   102.58     LegendNANA
03:00 13.1 LegendMM LegendMM 0.2 18 10   102.56     LegendNANA
04:00 12.8 LegendMM LegendMM 0.0 18 16   102.52     LegendNANA
05:00 12.8 LegendMM LegendMM 0.0 24 8   102.54     LegendNANA
06:00 12.7 LegendMM LegendMM 0.0 22 9   102.57     LegendNANA
07:00 12.7 LegendMM LegendMM 0.0 21 10   102.59     LegendNANA
08:00 13.0 LegendMM LegendMM 0.2 22 10   102.62     LegendNANA
09:00 13.7 LegendMM LegendMM 0.0 21 12   102.60     LegendNANA
10:00 15.0 LegendMM LegendMM 0.0 22 15   102.60     LegendNANA
11:00 15.3 LegendMM LegendMM 0.0 20 16   102.59     LegendNANA
12:00 16.2 LegendMM LegendMM 0.0 19 21   102.56     LegendNANA
13:00 15.6 LegendMM LegendMM 0.0 19 20   102.50     LegendNANA
14:00 15.9 LegendMM LegendMM 0.0 19 25   102.46     LegendNANA
15:00 16.5 16.5 100 0.0 19 20   102.43     LegendNANA
16:00 16.5 16.5 100 0.0 19 23   102.39     LegendNANA
17:00 14.6 LegendMM LegendMM 0.0 19 22   102.38     LegendNANA
18:00 13.6 LegendMM LegendMM 0.0 20 16   102.37     LegendNANA
19:00 13.2 LegendMM LegendMM 0.0 22 11   102.39     LegendNANA
20:00 12.6 LegendMM LegendMM 0.0 19 24   102.38     LegendNANA
21:00 11.9 LegendMM LegendMM 0.0 20 17   102.39     LegendNANA
22:00 12.0 LegendMM LegendMM 0.0 20 15   102.38     LegendNANA
23:00 13.3 LegendMM LegendMM 0.0 21 17   102.35     LegendNANA

Notes on Data Quality.

Legend

  • E = Estimated
  • M = Missing
  • NA = Not Available*
  • [empty] = Indicates an unobserved value
Date modified: